Regional Weather Roundup
Issued by NWS

Home | Current Version | Previous Version | Text Only | Print | Product List | Glossary On
Versions: 1 2 3 4 5 6 7 8 9 10 11 12 13 14 15 16 17 18 19 20 21 22 23 24 25 26 27 28 29 30 31 32 33 34 35 36 37 38 39 40 41 42 43 44 45 46 47 48 49 50
000
ASUS44 KEWX 282311
RWRTX
SOUTH TEXAS REGIONAL WEATHER ROUNDUP
NATIONAL WEATHER SERVICE AUSTIN/SAN ANTONIO TX
600 PM CDT THU MAY 28 2015

NOTE: "FAIR" INDICATED FEW OR NO CLOUDS BELOW 12,000 FEET WITH NO
SIGNIFICANT WEATHER AND/OR OBSTRUCTIONS TO VISIBILITY.

* - THESE STATIONS ARE NOT NWS OR FAA STATIONS...AND ARE NOT SUBJECT
    TO NWS AND FAA QUALITY CONTROL.

TXZ171-172-183>190-290000-
TEXAS HILL COUNTRY AND EDWARDS PLATEAU

CITY           SKY/WX    TMP DP  RH WIND       PRES   REMARKS
JUNCTION       MOSUNNY   86  66  51 S15G24    29.91F
*LLANO         MOSUNNY   88  73  62 S15G21    29.94F HX  96
BURNET         PTSUNNY   82  71  69 SE12G20   29.96S
*HORSESHOE BAY PTSUNNY   88  72  58 S12G18    29.93S HX  94
*KERRVILLE     MOSUNNY   82  72  71 S17G25    29.94F
*FREDERICKSBRG MOSUNNY   83  69  61 S10G17    29.94F
*ROCKSPRINGS   MOSUNNY   82  70  65 SE16G23   29.96F
*BOERNE STAGE    N/A     79  70  73 S12G17    29.95F
*CASTROVILLE   CLOUDY    85  70  60 SE13G23   29.92F HX  90
HONDO          MOSUNNY   85  73  67 SE15G23   29.92F HX  91
*UVALDE        MOSUNNY   87  74  66 SE13G18   29.88F HX  95
DEL RIO        PTSUNNY   87  70  56 SE15G23   29.85F HX  92
LAUGHLIN AFB   PTSUNNY   88  75  65 S16       29.86S HX  98
CARRIZO SPRGS  MOSUNNY   90  73  58 SE9G17    29.85F HX  98
$$

TXZ173-191>194-202-209-217>225-228-290000-
CENTRAL AND SOUTH CENTRAL TEXAS

CITY           SKY/WX    TMP DP  RH WIND       PRES   REMARKS
GEORGETOWN     NOT AVBL
AUSTIN/BERGSTM MOSUNNY   87  73  62 SE18G25   29.90F HX  94
AUSTIN/MABRY   MOSUNNY   86  73  65 S9G21     29.91F HX  93
*AUSTIN/EXEC   PTSUNNY   86  73  66 SE12G21   29.92F HX  93
*LAGO VISTA    PTSUNNY   85  71  63 SE7G16    29.95S HX  90
SAN MARCOS     MOSUNNY   88  72  58 SE18      29.91F HX  94
NEW BRAUNFELS  MOSUNNY   87  73  62 S20       29.91F HX  94
RANDOLPH AFB   MOSUNNY   85  73  67 SE16      29.92F HX  91
PT SAN ANTONIO MOSUNNY   86  73  66 SE15      29.90F HX  93
SAN ANTONIO    MOSUNNY   85  72  65 SE18G26   29.93F HX  91
STINSON FIELD  MOSUNNY   87  73  62 SE17      29.90F HX  94
*PLEASANTON    MOSUNNY   86  71  61 SE16G23   29.91F HX  91
*LA GRANGE     PTSUNNY   89  75  64 S15G22    29.90F HX  99
*GIDDINGS      PTSUNNY   85  73  66 SE9G16    29.95F HX  92
*GONZALES      PTSUNNY   87  75  66 SE16G25   29.91F HX  96
$$

TXZ163>164-176>182-195>201-210>213-226-227-235-290000-
SOUTHEAST TEXAS

CITY           SKY/WX    TMP DP  RH WIND       PRES   REMARKS
COLLEGE STN    PTSUNNY   82  67  60 SE12      29.94F
*BRYAN         PTSUNNY   83  66  55 SE12      29.95F
*CALDWELL      PTSUNNY   82  75  78 SE8       29.96F
*CROCKETT      NOT AVBL
*BRENHAM       PTSUNNY   85  75  72 E9        29.95F HX  94
HUNTSVILLE     CLOUDY    85  71  63 SE5       29.97F HX  90
CONROE         CLOUDY    83  72  69 SE12      29.97F
HOUSTON BUSH   CLOUDY    84  75  74 SE14      29.97F HX  92
HOUSTON HOBBY  PTSUNNY   84  73  69 SE12      29.97F HX  90
*HOUSTON SW AP   N/A     88  79  74 E10G20    29.98F HX 103
PEARLAND       PTSUNNY   86  73  65 SE10      30.00F HX  93
HOUSTON HOOKS  PTSUNNY   85  75  72 SE9       29.96F HX  93
ELLINGTON FLD  PTSUNNY   84  77  79 SE7       30.02S HX  94
SUGAR LAND     PTSUNNY   86  74  67 S20       29.96F HX  94
*HOUSTON EXEC  PTSUNNY   86  73  66 SE12      29.97F HX  93
*CLEVELAND MUN PTSUNNY   82  74  77 SE5       29.98F
*WHARTON       CLOUDY    85  74  69 SE16      29.96F HX  92
*COLUMBUS      FAIR      86  75  70 S12G17    29.93F HX  95
$$

TXZ214>216-236>238-290000-
THE UPPER TEXAS COAST

CITY           SKY/WX    TMP DP  RH WIND       PRES   REMARKS
*ORANGE        MOSUNNY   85  68  56 S9        30.03F
PORT ARTHUR    MOSUNNY   86  73  65 S8        30.01F HX  93
GALVESTON      PTSUNNY   83  77  82 SE12      30.01F HX  92
ANGLETON       MOSUNNY   81  75  82 SE13      29.98F
*BAY CITY      CLOUDY    85  78  81 SE10      29.98F HX  96
PALACIOS       CLOUDY    84  76  76 SE16      29.96F HX  93
$$

TXZ229>234-239>247-290000-
TEXAS COASTAL BEND AND RIO GRANDE PLAINS

CITY           SKY/WX    TMP DP  RH WIND       PRES   REMARKS
VICTORIA       CLOUDY    85  75  72 S18       29.95F HX  93
*BEEVILLE      CLOUDY    85  73  67 SE20G25   29.92F HX  92
ROCKPORT       MOSUNNY   86  74  67 SE16      29.93F HX  94
*PORT ARANSAS  CLOUDY    84  77  78 SE13G18   29.94F HX  94
*PORT LAVACA   CLOUDY    82  75  78 SE15      29.95F
*INGLESIDE     MOSUNNY   87  76  69 SE15G22   29.93F HX  96
CORPUS CHRISTI MOSUNNY   86  74  67 SE18      29.92F HX  94
CORPUS NAS     PTSUNNY   84  76  76 SE20      29.93F HX  93
*ROBSTOWN      SUNNY     87  74  64 SE20G26   29.91F HX  95
ALICE          MOSUNNY   89  73  59 SE18G28   29.89F HX  97
KINGSVILLE NAS MOSUNNY   87  76  69 SE21      29.90F HX  97
COTULLA        PTSUNNY   89  72  56 SE21      29.88F HX  96
*FAITH RANCH     N/A     91  70  49 SE14G23   29.86S HX  97
LAREDO         MOSUNNY   93  71  48 SE20      29.86F HX  99
$$

TXZ248>255-290000-
DEEP SOUTH TEXAS

CITY           SKY/WX    TMP DP  RH WIND       PRES   REMARKS
BROWNSVILLE    MOSUNNY   85  75  72 SE17      29.92F HX  93
PORT ISABEL    MOSUNNY   85  75  72 SE15      29.91F HX  93
*SOUTH PADRE     N/A    -24 -24 100 S15       29.93F WCI -50
HARLINGEN      MOSUNNY   89  74  60 SE20      29.89F HX  98
*HEBBRONVILLE    N/A     90  69  50 SE14G22   29.88F HX  94
MCALLEN        SUNNY     91  73  55 SE22G28   29.88F HX  99
*WESLACO       MOSUNNY   89  72  56 SE15G23   29.89F HX  95
FALFURRIAS     MOSUNNY   90  75  62 SE17      29.88F HX 100
EDINBURG       SUNNY     91  71  52 SE18G25   29.88F HX  97
*ZAPATA        MOSUNNY   91  70  50 SE15G23   29.84F HX  96
$$

TXZ213>215-236>238-242>244-246-247-251-254-255-290000-
CMAN STATIONS

STATION/POSITION TIME  TEMP    WIND        PRES    WAVE
                       AIR SEA DIR/SP/G            HT/PER
                 (UTC) (F)     (DEG/KT/KT) (MB)    (FT/S)
$$

GMZ080-GMZ150>470-290000-
OFFSHORE BUOY REPORTS

STATION/POSITION TIME  TEMP    WIND        PRES    WAVE
                       AIR SEA DIR/SP/G            HT/PER
                 (UTC) (F)     (DEG/KT/KT) (MB)    (FT/S)
$$


USA.gov is the U.S. government's official web portal to all federal, state and local government web resources and services.